Погода в Балашове

Погода в Балашове : погода сейчас, прогноз погоды и архив. Всё, что Вы хотите узнать о погоде в Балашове!

Хотите узнать прогноз погоды в Балашове? Тогда Вам сюда: Погода в Балашове

Поиск расширенной информации на нашем сайте:

Полезная информация:

Другие новости

Новости СМИ2

Главная страница сайта

Новости сайта

03.07.2017

Напоминаем, что на нашем специализированном сайте Метеоцентр.Азия вы можете получить высокодетализированные автоматические прогнозы погоды по пунктам России, СНГ и мира в авиационном формате (включающие направление и скорость ветра, видимость, явления погоды, количество и форму облачности, нижнюю и верхнюю границу облачности).

Рекомендуем:

Погода в Балашове - сегодня

Время (UTC), дата Ветер
(°,м/с) 
Видим.   Явления Облачность Т
(°С)
Тd
(°С)
f(%) Тe
(°С)
Pmin
(гПа)
dP
(гПа)
Po
(мм)
O2
(г/м3)
Тmin Tmax R s Состояние
почвы
09 15.09.19 270 (З) 20000 м    4/1 1000 м верхняя 
[Cu hum|Ci fib]
+15 +7.7 62 +15  1017.9  0.9  749  285           
12 15.09.19 290 (З) 20000 м    8/6 600 м верхняя 
[Cu med, cong|Ci fib]
+16.3 +6.8 53 +17  1017  -0.8  749  284           
15 15.09.19 230 (ЮЗ) 2{11}  20000 м    3/3 1000 м верхняя 
[Cu hum|Ci fib]
+13.9 +7.7 66 +14  1016.7  -0.4  748  286    +17.1       
18 15.09.19 210 (ЮЗ) 20000 м    3/0 верхняя 
[Ci fib]
+7 +5.4 90 +7  1017.3  0.1  749  293           
21 15.09.19 200 (Ю) 20000 м    10/0 средняя 
[Ac trans]
+7.7 +5.2 84 +7  1016.2  -1.1  748  292           
00 16.09.19 220 (ЮЗ) 20000 м    10/0 средняя 
[Ac trans]
+9.8 +5.1 73 +9  1014.6  -1.3  747  290           
03 16.09.19 220 (ЮЗ) 20000 м    10/0 средняя 
[Ac trans]
+9.8 +5.1 73 +9  1012.5  -2  745  289  +6.4        влажная 
06 16.09.19 220 (ЮЗ) 20000 м    10/0 средняя, верхняя 
[Ac trans|Ci fib]
+13.8 +5.7 58 +13  1010.5  -1.4  744  284           
09 16.09.19 230 (ЮЗ) 8-15{15}  20000 м    10/0 средняя, верхняя 
[Ac trans|Ci fib]
+20 +4.5 36 +20  1007  -3  742  278           
12 16.09.19 250 (З) 7-11{16}  20000 м    10/0 средняя, верхняя 
[Ac trans|Ci fib]
+20.4 +2.4 30 +20  1004.9  -2.1  740  277           
15 16.09.19 280 (З) 4{11}  20000 м    10/8 600 м средняя 
[Sc|Ac trans]
+17.9 +5.4 44 +18  1005.4  0.3  740  279    +21.8       
18 16.09.19 220 (ЮЗ) 20000 м    9/4 600 м средняя 
[Sc|Ac trans]
+14.4 +8.7 69 +15  1006.1  0.5  741  282           
21 16.09.19 250 (З) 20000 м    10/6 600 м средняя 
[Sc|Ac trans]
+12.9 +7.3 69 +13  1005.9  -0.3  740  284           
00 17.09.19 200 (Ю) 20000 м    8/0 средняя 
[Sc|Ac trans]
+8.9 +7.5 91 +9  1005.4  -0.7  740  287           
03 17.09.19 210 (ЮЗ) 20000 м    8/0 средняя, верхняя 
[Ac trans|Ci fib]
+9.2 +7.6 90 +9  1005.3  -0.4  740  287  +8.3        сухая 
06 17.09.19 220 (ЮЗ) 20000 м    10/0 средняя, верхняя 
[Ac lent|Cc]
+14.6 +9.3 70 +15  1004.5  -0.4  739  281           
09 17.09.19 240 (ЮЗ) 5-12{12}  20000 м    10/4 1000 м верхняя 
[Cu hum|Ci sp]
+20.1 +6.6 41 +20  1002.6  -1.4  738  276           
12 17.09.19 260 (З) 5{12}  20000 м    10/4 1000 м средняя, верхняя 
[Cu med, cong|Ac trans|Ci fib]
+20.2 +4.8 36 +20  1001.8  -0.8  738  276           
15 17.09.19 260 (З) 20000 м    10/1 1000 м верхняя 
[Cu hum|Cs]
+17.7 +4.7 42 +18  1001.8  -0.1  738  278    +21       
18 17.09.19 260 (З) 20000 м    10/0 верхняя 
[Ci fib]
+12.9 +4.6 57 +13  1003.7  739  283           
21 17.09.19 250 (З) 20000 м    ясно 
+9.7 +3.9 67 +10  1004.6  739  287           
00 18.09.19 190 (Ю) 20000 м    ясно 
+4.3 +3.6 95 +4  1005.4  0.6  740  293           
03 18.09.19 170 (Ю) 20000 м    10/6 1000 м верхняя 
[Sc|Cc]
+5.1 +4.6 97 +5  1005.2  -0.1  740  292  +3.7        сухая 
06 18.09.19 220 (ЮЗ) 20000 м    10/0 верхняя 
[Ci]
+12.3 +6 65 +12  1004.5  -0.2  739  284           
09 18.09.19 230 (ЮЗ) 5{11}  20000 м    10/1 1000 м кучево-дожд., средняя 
[Cb cap|Ac und]
+17 +2.9 39 +17  1002.9  -1.3  738  280           
Время (UTC), дата Ветер
(°,м/с) 
Видим.   Явления Облачность Т
(°С)
Тd
(°С)
f(%) Тe
(°С)
Pmin
(гПа)
dP
(гПа)
Po
(мм)
O2
(г/м3)
Тmin Tmax R s Состояние
почвы

Для получения пояснительной информации подведите курсор к названию столбца.

ПОГОДА в Балашове - архив

Всё, что Вы хотите узнать о погоде в Балашове - удобно и подробно!

Выберите нужную дату (начиная с 1 января 2018* года) и нажмите кнопку "Найти".
Будут отображены архивные сводки погоды по пункту Балашов, начиная с указанной даты.


Отображать данные в формате CSV (для использования в таблицах Excel)


Внимание! Наш архив погоды предназначен исключительно для личного некоммерческого использования в познавательных целях. Если Вам необходимы официальные справки о состоянии погоды (для производственных, юридических, коммерческих и т.п. целей), обращайтесь в органы Росгидромета.

*Примечание: данная дата относится к архиву по метеостанциям СССР (Россия, СНГ, Балтия).
Архив по метеостанциям Зарубежной Европы и Азии (кроме Китая) хранится 10 дней, по другим регионам земного шара (Китай, Африка, Америка, Австралия, Океания) - 1 день.

Балашов - район местоположения метеостанции


Название, широта, долгота, высота метеостанции:
Балашов 51.6°ш. 43.2°д. 159 м над ур. моря [Российская Федерация]

Дополнительная информация

В oтличие oт бoльшинства пoгoдных сайтoв мы публикуем пoдрoбную метеoинфoрмацию в детальнoм прoфессиoнальнoм фoрмате.

Характеристики температуры и влажнoсти вoздуха измеряются на высoте 2 м в тени вдали oт зданий и деревьев.
Скoрoсть ветра измеряется на высoте 10 м (на урoвне рoста челoвека скoрoсть ветра ниже в 1.5-2 раза). Если метеoстанция нахoдится в гoрoде или в лесу, тo скoрoсть ветра занижена на 2-4 м/с пo сравнению с oткрытым местoм. Скoрoсть ветра над акватoриями крупных рек и oзёр, а также на вершинах хoлмoв на 2-5 м/с выше, чем в oбычных услoвиях.
Атмoсфернoе давление в разных тoчках местнoсти мoжет значительнo oтличаться oт давления на метеoстанции, в зависимoсти oт услoвий рельефа (при пoдъёме на 10 м давление пoнижается примернo на 1 мм рт.ст.).